Cloud_Cover
100 100 100 100 100 100 100 100 100 100 100 80 93 15 17 15 0 8 0 0 0 0 0 0 0 0 100 100 100 100 100 100 100 95 100 100 92 100 76 84 100 78 25 5 99
100 100 100 100 100 100 100 100 100 100 100 100 100 35 16 19 29 0 0 0 0 0 0 3 0 0 33 100 100 100 100 100 100 100 100 100 99 100 100 100 77 78 20 27 94
100 100 100 100 100 100 100 100 100 100 100 100 100 72 16 19 0 0 0 0 0 0 0 0 0 0 0 4 100 100 100 100 100 100 100 100 100 100 100 99 86 84 17 58 99
100 100 100 100 100 100 100 100 100 100 100 100 100 33 22 21 0 0 0 0 0 5 0 0 0 0 0 2 24 100 100 100 79 100 100 100 100 99 100 100 99 58 91 71 34
100 100 100 100 100 100 100 100 100 100 100 100 100 21 4 0 0 0 0 0 0 4 1 5 5 5 5 0 0 90 100 100 100 100 100 100 100 100 100 100 100 92 78 81 12
100 96 100 100 100 100 100 100 100 100 100 100 97 18 2 0 0 0 0 0 0 5 5 17 12 75 5 4 0 17 100 86 100 100 90 100 100 100 99 100 100 24 44 100 75
100 100 100 100 100 100 100 100 100 100 100 100 28 1 0 0 0 0 0 0 0 0 41 36 5 86 5 5 0 0 3 5 100 100 100 100 78 88 100 100 100 100 45 100 56
100 99 98 100 100 100 96 10 47 100 100 90 35 0 0 0 0 0 0 0 0 0 5 4 5 5 5 3 0 0 14 49 100 100 100 97 48 75 96 95 100 100 100 100 13
97 100 96 96 100 86 0 9 35 100 100 25 1 0 0 0 0 0 0 0 0 0 0 0 5 5 5 4 0 0 1 30 62 100 84 96 17 44 100 96 100 100 100 83 100
100 100 100 100 100 71 0 4 0 11 1 5 0 0 0 0 0 0 0 0 0 0 0 0 2 2 5 5 5 0 0 2 34 98 100 100 88 18 8 100 100 100 100 89 99
100 100 100 100 100 60 5 0 0 0 0 3 0 0 0 0 0 0 0 0 0 0 0 0 0 1 95 5 6 5 2 3 5 100 100 100 100 100 38 100 100 100 100 100 94
20 100 100 100 100 100 57 0 0 0 0 0 12 0 0 0 0 0 0 0 0 0 0 0 0 4 47 68 52 5 0 30 3 40 100 100 100 100 84 96 99 100 100 100 69
15 70 98 74 100 47 0 0 3 4 0 0 11 54 0 0 0 0 0 0 0 0 0 0 0 0 0 8 58 5 4 5 2 10 100 100 100 100 100 98 100 100 100 100 100
7 20 20 96 23 0 0 0 5 7 0 2 77 100 33 0 0 0 0 0 0 0 0 0 0 0 0 2 94 10 87 26 5 5 69 100 99 100 100 100 100 100 100 81 95
6 22 42 98 0 2 3 5 9 58 0 0 7 99 76 0 0 0 0 0 0 0 0 0 0 0 0 0 6 100 100 56 5 86 6 100 44 100 93 93 100 76 100 68 95
5 68 99 61 80 28 41 13 60 73 3 0 7 95 100 5 0 0 0 0 0 0 0 0 0 0 0 0 0 3 99 84 73 3 17 90 24 100 89 27 100 100 100 98 14
69 89 100 100 100 100 76 98 100 100 96 1 0 100 100 100 4 1 0 4 0 0 0 0 0 0 0 0 0 0 6 15 5 16 0 63 56 100 21 30 54 99 100 99 91
100 100 100 100 100 100 100 100 100 100 100 2 0 30 100 100 100 22 0 2 0 0 0 0 0 0 0 0 0 0 0 5 6 36 6 5 24 48 41 92 73 100 100 100 100
100 100 100 100 100 100 100 100 100 100 100 5 0 0 96 100 100 95 59 0 0 0 0 0 0 0 0 0 0 0 0 5 5 0 77 5 79 99 69 78 75 70 100 100 100
80 98 100 100 100 100 100 100 100 100 98 13 5 0 0 86 100 100 100 34 19 5 5 0 0 0 0 0 0 0 0 1 1 0 50 18 44 70 96 100 100 87 100 100 100
41 96 97 100 100 100 100 100 100 100 28 29 7 29 2 0 7 69 99 94 79 99 5 5 0 0 0 0 0 0 0 0 0 5 5 5 9 91 100 100 100 100 100 100 100
9 59 100 100 100 100 100 100 100 100 5 62 50 100 98 53 6 7 1 8 6 63 100 11 5 5 0 3 0 0 5 5 5 70 9 56 23 88 67 100 94 99 100 100 100
5 82 100 99 100 100 100 100 95 57 42 100 100 100 100 92 51 2 3 0 0 5 68 96 75 52 5 17 4 0 0 3 16 64 43 21 19 100 98 95 100 100 76 100 100
5 50 60 96 66 100 100 100 39 94 100 9 35 5 5 0 0 0 60 10 0 15 61 5 84 97 44 14 8 3 2 0 1 39 4 39 98 100 97 100 100 100 100 100 100
34 5 79 100 100 100 100 66 25 59 61 25 33 36 0 0 6 31 4 2 5 3 4 33 43 98 100 80 5 5 5 0 0 44 11 2 89 100 38 100 100 100 100 100 100
68 5 51 100 100 100 88 90 90 76 5 1 5 3 5 0 3 87 83 96 100 100 100 95 5 78 100 95 87 5 5 3 5 28 37 51 90 57 90 75 100 100 100 100 100
6 5 87 100 100 100 92 71 98 89 36 3 5 4 0 2 1 5 52 70 100 100 100 100 100 100 100 98 100 83 14 1 94 88 10 40 64 95 93 100 100 100 85 100 100